Location: Roland
(31.1349°N, 85.4372°W)
Time: 02:35:48
(UTC+00:00)

Vanguard 1 Rocket - Pass Details

Date: 07 October 2022
Orbit: 650 x 4225 km, 34.3° (Epoch: 06 December)

Event Time Altitude Azimuth Distance (km) Brightness Sun altitude
Rises 00:12:07 0° 245° (WSW) 8,459 13.6 -11.9°
Reaches altitude 10° 00:18:06 10° 246° (WSW) 7,402 13.1 -13.1°
Maximum altitude 00:43:17 86° 161° (SSE) 3,176 10.0 -18.5°
Enters shadow 00:54:16 24° 75° (ENE) 3,884 10.0 -20.9°
